SR9NCI Weather Reports


time (UTC)temp
C
wind
direction
speed
KPH
gust
KPH
rain 1hr
cm
rain 24hr
cm
rain mn
cm
humidity
%
barometer
mb
20260904213914 26 225 11.3 17.7 0.00 0.00 0.00
20260904213513 26 218 12.9 24.1 0.00 0.00 0.00
20260904213111 26 223 12.9 19.3 0.00 0.00 0.00
20260904212702 26 229 16.1 27.4 0.00 0.00 0.00
20260904212300 26 235 16.1 33.8 0.00 0.00 0.00
20260904211859 26 235 14.5 17.7 0.00 0.00 0.00
20260904211458 26 220 14.5 27.4 0.00 0.00 0.00
20260904211054 26 222 11.3 19.3 0.00 0.00 0.00
20260904210653 26 207 9.7 25.7 0.00 0.00 0.00
20260904210251 26 207 12.9 22.5 0.00 0.00 0.00
20260904205850 26 200 16.1 29.0 0.00 0.00 0.00
20260904205449 26 202 12.9 19.3 0.00 0.00 0.00
20260904205046 26 206 14.5 24.1 0.00 0.00 0.00
20260904204638 26 205 17.7 30.6 0.00 0.00 0.00
20260904204236 26 212 17.7 22.5 0.00 0.00 0.00
20260904203835 26 210 16.1 25.7 0.00 0.00 0.00
20260904203433 26 209 22.5 35.4 0.00 0.00 0.00
20260904203031 26 204 20.9 38.6 0.00 0.00 0.00
20260904202630 26 206 19.3 33.8 0.00 0.00 0.00
20260904202228 26 200 19.3 37.0 0.00 0.00 0.00
20260904201826 26 206 20.9 33.8 0.00 0.00 0.00
20260904201425 26 213 19.3 35.4 0.00 0.00 0.00
20260904201023 26 205 17.7 25.7 0.00 0.00 0.00
20260904200615 26 205 14.5 24.1 0.00 0.00 0.00
20260904200212 25 199 16.1 22.5 0.00 0.00 0.00
20260904195811 25 201 16.1 30.6 0.00 0.00 0.00
20260904195410 26 201 20.9 32.2 0.00 0.00 0.00
20260904195008 25 199 14.5 27.4 0.00 0.00 0.00
20260904194607 25 201 16.1 24.1 0.00 0.00 0.00
20260904194204 25 207 16.1 24.1 0.00 0.00 0.00
20260904193803 25 211 11.3 20.9 0.00 0.00 0.00
20260904193402 25 207 14.5 27.4 0.00 0.00 0.00
20260904193000 25 199 11.3 16.1 0.00 0.00 0.00
20260904192551 24 178 8.0 12.9 0.00 0.00 0.00
20260904192149 24 160 6.4 12.9 0.00 0.00 0.00
20260904191748 24 164 6.4 12.9 0.00 0.00 0.00
20260904191347 24 161 6.4 9.7 0.00 0.00 0.00
20260904190944 23 151 4.8 12.9 0.00 0.00 0.00
20260904190543 24 156 6.4 11.3 0.00 0.00 0.00
20260904190142 24 153 8.0 11.3 0.00 0.00 0.00
20260904185741 25 174 3.2 8.0 0.00 0.00 0.00
20260904185338 25 185 6.4 9.7 0.00 0.00 0.00
20260904184937 25 188 4.8 12.9 0.00 0.00 0.00
20260904184529 25 180 4.8 6.4 0.00 0.00 0.00
20260904184127 25 180 1.6 6.4 0.00 0.00 0.00
20260904183726 25 180 4.8 9.7 0.00 0.00 0.00
20260904183324 25 180 6.4 9.7 0.00 0.00 0.00
20260904182921 25 189 6.4 9.7 0.00 0.00 0.00
20260904182520 25 199 8.0 9.7 0.00 0.00 0.00
20260904182119 25 192 4.8 8.0 0.00 0.00 0.00
20260904181716 25 195 9.7 19.3 0.00 0.00 0.00
20260904181315 25 202 4.8 8.0 0.00 0.00 0.00
20260904180914 25 188 6.4 12.9 0.00 0.00 0.00
20260904180506 25 201 9.7 12.9 0.00 0.00 0.00
20260904175702 25 195 9.7 12.9 0.00 0.00 0.00
20260904175301 25 189 11.3 16.1 0.00 0.00 0.00
20260904174859 25 185 12.9 16.1 0.00 0.00 0.00
20260904174457 26 192 11.3 16.1 0.00 0.00 0.00
20260904174055 26 186 12.9 19.3 0.00 0.00 0.00
20260904173654 26 185 12.9 19.3 0.00 0.00 0.00
20260904173252 26 200 12.9 19.3 0.00 0.00 0.00
20260904172850 26 172 11.3 14.5 0.00 0.00 0.00
20260904172441 26 185 11.3 14.5 0.00 0.00 0.00
20260904172039 26 183 12.9 16.1 0.00 0.00 0.00
20260904171238 26 202 9.7 16.1 0.00 0.00 0.00
20260904170834 26 202 14.5 17.7 0.00 0.00 0.00
20260904170434 26 194 16.1 27.4 0.00 0.00 0.00
20260904170032 26 209 9.7 14.5 0.00 0.00 0.00
20260904165631 26 205 11.3 17.7 0.00 0.00 0.00
20260904165229 26 208 11.3 17.7 0.00 0.00 0.00
20260904164827 26 205 11.3 17.7 0.00 0.00 0.00
20260904164419 26 215 11.3 19.3 0.00 0.00 0.00
20260904164017 27 203 9.7 16.1 0.00 0.00 0.00
20260904163615 27 206 12.9 19.3 0.00 0.00 0.00
20260904163214 27 217 14.5 25.7 0.00 0.00 0.00
20260904162812 27 212 16.1 22.5 0.00 0.00 0.00
20260904162411 27 200 17.7 32.2 0.00 0.00 0.00
20260904162009 28 205 14.5 20.9 0.00 0.00 0.00
20260904161607 27 196 16.1 29.0 0.00 0.00 0.00
20260904161206 27 195 12.9 19.3 0.00 0.00 0.00
20260904160804 26 212 12.9 24.1 0.00 0.00 0.00
20260904160356 26 197 12.9 20.9 0.00 0.00 0.00
20260904155953 26 213 12.9 22.5 0.00 0.00 0.00
20260904155552 26 197 9.7 14.5 0.00 0.00 0.00
20260904155151 26 202 16.1 25.7 0.00 0.00 0.00
20260904154750 26 201 12.9 17.7 0.00 0.00 0.00
20260904154347 26 203 9.7 16.1 0.00 0.00 0.00
20260904153945 26 206 11.3 16.1 0.00 0.00 0.00
20260904153544 26 210 12.9 19.3 0.00 0.00 0.00
20260904153143 26 224 12.9 20.9 0.00 0.00 0.00
20260904152740 26 207 12.9 25.7 0.00 0.00 0.00
20260904152332 26 214 11.3 17.7 0.00 0.00 0.00
20260904151930 26 208 14.5 22.5 0.00 0.00 0.00
20260904151530 26 221 12.9 22.5 0.00 0.00 0.00
20260904151128 26 227 11.3 16.1 0.00 0.00 0.00
20260904150725 26 225 16.1 22.5 0.00 0.00 0.00
20260904150325 26 214 16.1 32.2 0.00 0.00 0.00
20260904145923 26 216 17.7 27.4 0.00 0.00 0.00
20260904145521 26 216 14.5 24.1 0.00 0.00 0.00
20260904145119 26 213 14.5 22.5 0.00 0.00 0.00
20260904144716 26 224 16.1 22.5 0.00 0.00 0.00
20260904144308 26 230 17.7 30.6 0.00 0.00 0.00
20260904143907 26 225 17.7 30.6 0.00 0.00 0.00
20260904143504 26 205 20.9 29.0 0.00 0.00 0.00
20260904143103 26 231 17.7 29.0 0.00 0.00 0.00
20260904142701 26 225 17.7 25.7 0.00 0.00 0.00
20260904142300 27 208 19.3 30.6 0.00 0.00 0.00
20260904141857 27 207 14.5 22.5 0.00 0.00 0.00
20260904141456 26 217 12.9 24.1 0.00 0.00 0.00
20260904141055 26 204 20.9 38.6 0.00 0.00 0.00
20260904140653 26 222 19.3 30.6 0.00 0.00 0.00
20260904140245 26 215 22.5 35.4 0.00 0.00 0.00
20260904135842 26 210 16.1 22.5 0.00 0.00 0.00
20260904135441 26 206 17.7 27.4 0.00 0.00 0.00
20260904135040 26 224 14.5 25.7 0.00 0.00 0.00
20260904134638 26 232 14.5 22.5 0.00 0.00 0.00
20260904134236 26 232 14.5 22.5 0.00 0.00 0.00
20260904133834 26 225 17.7 41.8 0.00 0.00 0.00
20260904133433 26 229 17.7 27.4 0.00 0.00 0.00
20260904133033 26 226 22.5 30.6 0.00 0.00 0.00
20260904132629 26 223 19.3 27.4 0.00 0.00 0.00
20260904132221 26 207 19.3 38.6 0.00 0.00 0.00
20260904131820 25 214 20.9 38.6 0.00 0.00 0.00
20260904131419 25 215 16.1 29.0 0.00 0.00 0.00
20260904131017 25 205 17.7 29.0 0.00 0.00 0.00
20260904130614 26 212 19.3 32.2 0.00 0.00 0.00
20260904130213 26 208 16.1 27.4 0.00 0.00 0.00
20260904125811 26 212 12.9 19.3 0.00 0.00 0.00
20260904125410 26 224 16.1 27.4 0.00 0.00 0.00
20260904125008 26 226 17.7 27.4 0.00 0.00 0.00
20260904124606 26 233 17.7 27.4 0.00 0.00 0.00
20260904124158 26 213 16.1 22.5 0.00 0.00 0.00
20260904123756 26 234 14.5 22.5 0.00 0.00 0.00
20260904123354 26 229 11.3 19.3 0.00 0.00 0.00
20260904122953 26 236 11.3 16.1 0.00 0.00 0.00
20260904122551 26 242 11.3 16.1 0.00 0.00 0.00
20260904122150 26 230 14.5 25.7 0.00 0.00 0.00
20260904121747 26 238 14.5 22.5 0.00 0.00 0.00
20260904121346 26 217 12.9 20.9 0.00 0.00 0.00
20260904120945 25 225 16.1 27.4 0.00 0.00 0.00
20260904120543 25 245 20.9 40.2 0.00 0.00 0.00
20260904120134 25 237 20.9 33.8 0.00 0.00 0.00
20260904115732 25 247 12.9 19.3 0.00 0.00 0.00
20260904115331 25 248 16.1 25.7 0.00 0.00 0.00
20260904114930 25 208 19.3 32.2 0.00 0.00 0.00
20260904114528 25 230 16.1 30.6 0.00 0.00 0.00
20260904114126 25 224 16.1 25.7 0.00 0.00 0.00
20260904113724 25 227 19.3 33.8 0.00 0.00 0.00
20260904113323 25 231 19.3 29.0 0.00 0.00 0.00
20260904112922 25 217 20.9 37.0 0.00 0.00 0.00
20260904112519 24 221 16.1 22.5 0.00 0.00 0.00
20260904112111 24 231 12.9 19.3 0.00 0.00 0.00
20260904111710 25 229 14.5 30.6 0.00 0.00 0.00
20260904111309 24 235 19.3 29.0 0.00 0.00 0.00
20260904110906 24 211 17.7 32.2 0.00 0.00 0.00
20260904110505 24 226 14.5 27.4 0.00 0.00 0.00
20260904110104 24 238 14.5 22.5 0.00 0.00 0.00
20260904105702 24 235 17.7 24.1 0.00 0.00 0.00
20260904105300 24 231 17.7 20.9 0.00 0.00 0.00
20260904104859 24 206 16.1 27.4 0.00 0.00 0.00
20260904104457 24 221 16.1 27.4 0.00 0.00 0.00
20260904104049 24 220 16.1 27.4 0.00 0.00 0.00
20260904103647 24 224 14.5 20.9 0.00 0.00 0.00
20260904103245 24 246 11.3 20.9 0.00 0.00 0.00
20260904102844 24 247 16.1 22.5 0.00 0.00 0.00
20260904102442 24 222 9.7 16.1 0.00 0.00 0.00
20260904101638 23 208 22.5 33.8 0.00 0.00 0.00
20260904100836 23 226 14.5 24.1 0.00 0.00 0.00
20260904100442 23 220 14.5 30.6 0.00 0.00 0.00
20260904100434 23 220 14.5 30.6 0.00 0.00 0.00
20260904100024 24 223 19.3 29.0 0.00 0.00 0.00
20260904095222 23 244 14.5 24.1 0.00 0.00 0.00
20260904094821 23 259 12.9 27.4 0.00 0.00 0.00
20260904094418 23 250 14.5 19.3 0.00 0.00 0.00
20260904094017 23 227 11.3 20.9 0.00 0.00 0.00
20260904093615 23 240 14.5 24.1 0.00 0.00 0.00
20260904093214 23 229 16.1 25.7 0.00 0.00 0.00
20260904092813 23 202 17.7 29.0 0.00 0.00 0.00
20260904092002 23 193 14.5 24.1 0.00 0.00 0.00
20260904091159 23 223 12.9 27.4 0.00 0.00 0.00
20260904090757 22 229 9.7 17.7 0.00 0.00 0.00
20260904090355 22 237 12.9 25.7 0.00 0.00 0.00
20260904085954 22 224 16.1 27.4 0.00 0.00 0.00
20260904085552 22 221 14.5 22.5 0.00 0.00 0.00
20260904085150 22 234 12.9 22.5 0.00 0.00 0.00
20260904084749 22 216 14.5 20.9 0.00 0.00 0.00
20260904084348 22 209 16.1 22.5 0.00 0.00 0.00
20260904083939 22 207 14.5 25.7 0.00 0.00 0.00
20260904083537 22 214 16.1 25.7 0.00 0.00 0.00
20260904083136 22 222 16.1 27.4 0.00 0.00 0.00
20260904082333 22 220 14.5 25.7 0.00 0.00 0.00
20260904081932 21 248 16.1 22.5 0.00 0.00 0.00
20260904081529 22 241 9.7 17.7 0.00 0.00 0.00
20260904081128 21 231 12.9 19.3 0.00 0.00 0.00
20260904080727 21 218 12.9 19.3 0.00 0.00 0.00
20260904080325 21 231 14.5 25.7 0.00 0.00 0.00
20260904075916 21 220 12.9 17.7 0.00 0.00 0.00
20260904075514 21 228 11.3 19.3 0.00 0.00 0.00
20260904075113 21 221 11.3 19.3 0.00 0.00 0.00
20260904074712 21 242 9.7 17.7 0.00 0.00 0.00
20260904074309 21 230 14.5 20.9 0.00 0.00 0.00
20260904073908 21 236 12.9 17.7 0.00 0.00 0.00
20260904073506 21 220 17.7 25.7 0.00 0.00 0.00
20260904073105 21 258 16.1 24.1 0.00 0.00 0.00
20260904072702 21 250 16.1 24.1 0.00 0.00 0.00
20260904072300 21 225 16.1 25.7 0.00 0.00 0.00
20260904071852 21 229 14.5 19.3 0.00 0.00 0.00
20260904071449 21 223 14.5 22.5 0.00 0.00 0.00
20260904071048 21 234 11.3 16.1 0.00 0.00 0.00
20260904070646 21 257 12.9 20.9 0.00 0.00 0.00
20260904070244 21 254 14.5 19.3 0.00 0.00 0.00
20260904065843 21 246 11.3 16.1 0.00 0.00 0.00
20260904065441 21 249 14.5 17.7 0.00 0.00 0.00
20260904065039 21 246 8.0 19.3 0.00 0.00 0.00
20260904064638 21 248 9.7 14.5 0.00 0.00 0.00
20260904063829 21 225 9.7 16.1 0.00 0.00 0.00
20260904063426 21 229 12.9 19.3 0.00 0.00 0.00
20260904063025 21 223 6.4 9.7 0.00 0.00 0.00
20260904062624 21 216 8.0 16.1 0.00 0.00 0.00
20260904062222 21 229 9.7 16.1 0.00 0.00 0.00
20260904061820 21 235 12.9 16.1 0.00 0.00 0.00
20260904061418 20 218 11.3 16.1 0.00 0.00 0.00
20260904061017 20 222 8.0 11.3 0.00 0.00 0.00
20260904060616 20 229 9.7 14.5 0.00 0.00 0.00
20260904060214 20 230 11.3 16.1 0.00 0.00 0.00
20260904055805 20 230 11.3 14.5 0.00 0.00 0.00
20260904055403 20 219 9.7 16.1 0.00 0.00 0.00
20260904055002 20 218 8.0 14.5 0.00 0.00 0.00
20260904054601 20 224 11.3 16.1 0.00 0.00 0.00
20260904054158 20 229 11.3 16.1 0.00 0.00 0.00
20260904053757 20 225 9.7 14.5 0.00 0.00 0.00
20260904053355 20 218 8.0 12.9 0.00 0.00 0.00
20260904052954 20 220 6.4 11.3 0.00 0.00 0.00
20260904052552 20 221 9.7 16.1 0.00 0.00 0.00
20260904052150 20 213 4.8 8.0 0.00 0.00 0.00
20260904051743 20 223 9.7 14.5 0.00 0.00 0.00
20260904051341 20 223 8.0 14.5 0.00 0.00 0.00
20260904050938 20 223 9.7 17.7 0.00 0.00 0.00
20260904050537 20 222 8.0 12.9 0.00 0.00 0.00
20260904050136 20 220 8.0 14.5 0.00 0.00 0.00
20260904045333 20 227 12.9 19.3 0.00 0.00 0.00
20260904044931 20 235 12.9 19.3 0.00 0.00 0.00
20260904044529 20 225 11.3 20.9 0.00 0.00 0.00
20260904044128 20 215 11.3 17.7 0.00 0.00 0.00
20260904043317 20 226 8.0 14.5 0.00 0.00 0.00
20260904042916 20 215 8.0 16.1 0.00 0.00 0.00
20260904042515 20 223 8.0 16.1 0.00 0.00 0.00
20260904042113 20 224 8.0 11.3 0.00 0.00 0.00
20260904041711 20 234 6.4 12.9 0.00 0.00 0.00
20260904041309 20 235 6.4 9.7 0.00 0.00 0.00
20260904040908 20 234 6.4 8.0 0.00 0.00 0.00
20260904040507 20 242 9.7 16.1 0.00 0.00 0.00
20260904040104 20 244 8.0 11.3 0.00 0.00 0.00
20260904035656 19 241 8.0 14.5 0.00 0.00 0.00
20260904035254 19 248 9.7 14.5 0.00 0.00 0.00
20260904034853 19 248 9.7 14.5 0.00 0.00 0.00
20260904034452 20 242 8.0 14.5 0.00 0.00 0.00
20260904034049 20 236 8.0 12.9 0.00 0.00 0.00
20260904033648 20 242 8.0 12.9 0.00 0.00 0.00
20260904033246 20 235 8.0 14.5 0.00 0.00 0.00
20260904032845 20 234 8.0 12.9 0.00 0.00 0.00
20260904032443 20 236 8.0 14.5 0.00 0.00 0.00
20260904032042 20 247 6.4 9.7 0.00 0.00 0.00
20260904031634 20 222 4.8 9.7 0.00 0.00 0.00
20260904031232 20 233 8.0 12.9 0.00 0.00 0.00
20260904030830 20 239 6.4 12.9 0.00 0.00 0.00
20260904030429 20 249 8.0 14.5 0.00 0.00 0.00
20260904030027 20 244 9.7 16.1 0.00 0.00 0.00
20260904025626 20 245 9.7 12.9 0.00 0.00 0.00
20260904025223 20 250 9.7 12.9 0.00 0.00 0.00
20260904024822 20 259 6.4 9.7 0.00 0.00 0.00
20260904024421 20 248 8.0 11.3 0.00 0.00 0.00
20260904024019 20 249 8.0 11.3 0.00 0.00 0.00
20260904023611 20 239 9.7 14.5 0.00 0.00 0.00
20260904023208 20 250 8.0 11.3 0.00 0.00 0.00
20260904022807 20 248 8.0 12.9 0.00 0.00 0.00
20260904022406 20 241 9.7 12.9 0.00 0.00 0.00
20260904022004 20 237 9.7 12.9 0.00 0.00 0.00
20260904021602 20 238 6.4 9.7 0.00 0.00 0.00
20260904020759 20 244 8.0 11.3 0.00 0.00 0.00
20260904020358 20 241 8.0 12.9 0.00 0.00 0.00
20260904015955 20 243 9.7 14.5 0.00 0.00 0.00
20260904015547 20 229 11.3 16.1 0.00 0.00 0.00
20260904015146 20 228 9.7 16.1 0.00 0.00 0.00
20260904014745 20 232 9.7 16.1 0.00 0.00 0.00
20260904014342 20 232 8.0 14.5 0.00 0.00 0.00
20260904013941 20 225 6.4 12.9 0.00 0.00 0.00
20260904013540 20 234 9.7 16.1 0.00 0.00 0.00
20260904013138 20 233 9.7 14.5 0.00 0.00 0.00
20260904012737 20 230 9.7 16.1 0.00 0.00 0.00
20260904012335 20 237 8.0 14.5 0.00 0.00 0.00
20260904011933 20 230 9.7 14.5 0.00 0.00 0.00
20260904011525 20 242 8.0 19.3 0.00 0.00 0.00
20260904011123 20 238 8.0 14.5 0.00 0.00 0.00
20260904010721 20 227 8.0 12.9 0.00 0.00 0.00
20260904010320 20 223 9.7 16.1 0.00 0.00 0.00
20260904005918 20 229 8.0 14.5 0.00 0.00 0.00
20260904005517 20 229 11.3 20.9 0.00 0.00 0.00
20260904005114 20 231 11.3 14.5 0.00 0.00 0.00
20260904004713 20 241 8.0 12.9 0.00 0.00 0.00
20260904004312 20 219 8.0 14.5 0.00 0.00 0.00
20260904003910 20 232 9.7 17.7 0.00 0.00 0.00
20260904003501 20 220 9.7 17.7 0.00 0.00 0.00
20260904003059 20 230 8.0 14.5 0.00 0.00 0.00
20260904002658 20 231 8.0 16.1 0.00 0.00 0.00
20260904002257 20 213 9.7 17.7 0.00 0.00 0.00
20260904001855 20 211 8.0 20.9 0.00 0.00 0.00
20260904001453 20 215 9.7 14.5 0.00 0.00 0.00
20260904001052 20 226 9.7 14.5 0.00 0.00 0.00
20260904000650 20 235 8.0 12.9 0.00 0.00 0.00
20260904000249 20 232 9.7 14.5 0.00 0.00 0.00
20260903235846 20 233 8.0 12.9 0.00 0.00 0.00
20260903235437 20 233 8.0 14.5 0.00 0.00 0.00
20260903235036 20 223 9.7 14.5 0.00 0.00 0.00
20260903234231 20 214 8.0 16.1 0.00 0.00 0.00
20260903233830 21 205 9.7 19.3 0.00 0.00 0.00
20260903233027 21 219 6.4 14.5 0.00 0.00 0.00
20260903232625 21 220 8.0 16.1 0.00 0.00 0.00
20260903232224 20 223 8.0 12.9 0.00 0.00 0.00
20260903231822 20 226 11.3 17.7 0.00 0.00 0.00
20260903231414 20 234 11.3 16.1 0.00 0.00 0.00
20260903231012 21 229 9.7 14.5 0.00 0.00 0.00
20260903230610 20 239 9.7 14.5 0.00 0.00 0.00
20260903230209 20 229 9.7 16.1 0.00 0.00 0.00
20260903225807 20 225 8.0 12.9 0.00 0.00 0.00
20260903225406 20 230 9.7 12.9 0.00 0.00 0.00
20260903225003 20 229 8.0 14.5 0.00 0.00 0.00
20260903224602 21 223 4.8 12.9 0.00 0.00 0.00
20260903224201 20 215 6.4 16.1 0.00 0.00 0.00
20260903223759 20 188 3.2 8.0 0.00 0.00 0.00
20260903223350 20 180 3.2 6.4 0.00 0.00 0.00
20260903222948 20 180 3.2 6.4 0.00 0.00 0.00
20260903222547 20 188 3.2 8.0 0.00 0.00 0.00
20260903222146 19 202 1.6 3.2 0.00 0.00 0.00
20260903221743 19 186 4.8 6.4 0.00 0.00 0.00
20260903221342 18 168 3.2 6.4 0.00 0.00 0.00
20260903220940 18 164 3.2 4.8 0.00 0.00 0.00
20260903220539 18 158 1.6 3.2 0.00 0.00 0.00
20260903220138 18 157 1.6 3.2 0.00 0.00 0.00
20260903215327 19 141 3.2 4.8 0.00 0.00 0.00
20260903214926 19 135 1.6 4.8 0.00 0.00 0.00
20260903214525 18 139 3.2 6.4 0.00 0.00 0.00